[[{"header":{"parameterUnit":"m.s-1","parameterCategory":2,"la1":30.2991,"la2":30.254,"lo1":-89.0895,"lo2":-89.0444,"dy":0.0017,"dx":0.0017,"nx":28,"ny":28,"refTime":"2025-05-27T03:00:00:Z","depth":"0","parameterNumber":2,"parameterNumberName":"U-component_of_CURRENTS"},"data":[0,0,0,0,0,0,0,0,0,0,0,0,0,0,0,0,0,0,0,0,0,0,0,0,0,0,0,0,0,0,0,0,0,0,0,0,0,0,0,0,0,0,0,0,0,0,0,0,0,0,0,0,0,0,0,0,0,0,-0.1776,-0.1776,0,-0.1746,-0.1745,-0.1744,-0.1673,-0.1672,-0.1671,-0.167,-0.1507,-0.1503,-0.15,0,0,0,0,0,0,0,0,0,0,0,0,0,-0.1716,-0.1718,-0.1775,-0.1776,-0.1776,-0.1746,-0.1745,-0.1744,-0.1673,-0.1672,-0.1671,-0.167,-0.1508,-0.1504,-0.15,0,0,0,0,0,0,0,0,0,0,0,0,0,-0.1713,-0.1718,-0.1775,-0.1742,-0.1739,-0.1746,-0.1745,-0.1744,-0.1673,-0.1672,-0.167,-0.1669,-0.1509,-0.1504,-0.1499,-0.1492,0,0,-0.1483,-0.148,0,0,0,0,0,0,0,0,-0.1714,-0.1715,-0.1747,-0.1745,-0.1742,-0.1718,-0.1665,-0.1655,-0.1673,-0.1691,-0.167,-0.1669,-0.1571,-0.156,-0.1549,-0.1484,-0.1477,-0.1482,-0.1479,-0.1477,-0.1475,0,0,0,0,0,0,0,-0.1714,-0.1715,-0.1756,-0.1747,-0.1744,-0.1711,-0.1709,-0.1662,-0.163,-0.1689,-0.1686,-0.1694,-0.1567,-0.1555,-0.1545,-0.1474,-0.1482,-0.1478,-0.1474,-0.1472,-0.1406,-0.1407,0,0,0,0,0,0,-0.1737,-0.1716,-0.1758,-0.1756,-0.1732,-0.1714,-0.1711,-0.1721,-0.1633,-0.1622,-0.1695,-0.1691,-0.1564,-0.1551,-0.1538,-0.1526,-0.1477,-0.1472,-0.1469,-0.1404,-0.1406,-0.1408,0,0,0,0,0,0,-0.1735,-0.1741,-0.1759,-0.1741,-0.1742,-0.1717,-0.1728,-0.1721,-0.1706,-0.1641,-0.1625,-0.1688,-0.1563,-0.1546,-0.1504,-0.1518,-0.1469,-0.1464,-0.1403,-0.1405,-0.1407,-0.1498,0,0,0,0,0,0,-0.1734,-0.174,-0.1744,-0.1743,-0.1744,-0.1765,-0.173,-0.1722,-0.1717,-0.171,-0.1629,-0.1613,-0.1561,-0.1512,-0.1498,-0.151,-0.146,-0.1401,-0.1404,-0.1406,-0.1494,-0.1503,-0.1512,0,0,0,0,0,-0.1732,-0.1743,-0.1744,-0.1749,-0.1754,-0.1767,-0.1763,-0.1736,-0.1718,-0.1715,-0.1666,-0.1615,-0.152,-0.1509,-0.1492,-0.1503,-0.1399,-0.1403,-0.1406,-0.1489,-0.1501,-0.1512,0,0,0,0,0,0,-0.1707,-0.1738,-0.1739,-0.1755,-0.1765,-0.1757,-0.1752,-0.1744,-0.1705,-0.1691,-0.1625,-0.1606,-0.158,-0.1533,-0.1523,-0.1496,-0.1455,-0.1455,-0.1524,-0.1535,-0.1544,-0.1541,-0.1456,0,0,0,0,0,-0.1712,-0.1728,-0.1753,-0.1761,-0.1773,-0.1766,-0.1765,-0.1754,-0.1731,-0.1712,-0.1662,-0.1613,-0.1584,-0.1552,-0.1515,-0.1489,-0.1485,-0.149,-0.1499,-0.1507,-0.1496,-0.1544,-0.1557,-0.1418,-0.1418,-0.1418,0,0,-0.1701,-0.1722,-0.1727,-0.1757,-0.1759,-0.1774,-0.1759,-0.1766,-0.1763,-0.17,-0.1666,-0.1641,-0.1588,-0.1567,-0.1551,-0.1524,-0.1546,-0.1511,-0.1518,-0.1502,-0.1549,-0.1563,-0.1575,-0.142,-0.142,-0.142,0,0,-0.1695,-0.1714,-0.1729,-0.1748,-0.1771,-0.1774,-0.1783,-0.1785,-0.177,-0.175,-0.1718,-0.1711,-0.1635,-0.1623,-0.1601,-0.164,-0.1602,-0.1623,-0.1651,-0.1699,-0.1711,-0.1721,-0.1744,-0.1755,-0.1618,-0.1618,-0.1618,0,-0.1676,-0.1705,-0.1732,-0.1756,-0.1765,-0.1779,-0.1791,-0.1791,-0.1772,-0.1762,-0.1743,-0.1702,-0.1667,-0.1665,-0.1679,-0.166,-0.1667,-0.1613,-0.1712,-0.1722,-0.1731,-0.1751,-0.1763,-0.1623,-0.1622,-0.1621,-0.1621,0,-0.1686,-0.171,-0.1722,-0.1758,-0.1771,-0.1785,-0.1805,-0.1805,-0.1793,-0.1788,-0.1785,-0.1766,-0.1734,-0.1743,-0.1711,-0.1759,-0.1738,-0.173,-0.1687,-0.1751,-0.1768,-0.1778,-0.1629,-0.1628,-0.1626,-0.1625,0,0,-0.1629,-0.1714,-0.1712,-0.1727,-0.1773,-0.1777,-0.1795,-0.1806,-0.1803,-0.1807,-0.1805,-0.1804,-0.1802,-0.1781,-0.1773,-0.1817,-0.1901,-0.1794,-0.1795,-0.1819,-0.199,-0.1792,-0.1784,-0.1912,-0.1914,-0.1916,-0.198,0,-0.1618,-0.1664,-0.1707,-0.1724,-0.1743,-0.1773,-0.1783,-0.1795,-0.1797,-0.18,-0.1822,-0.1813,-0.1815,-0.1807,-0.1859,-0.1881,-0.193,-0.1883,-0.1919,-0.192,-0.1739,-0.179,-0.1632,-0.1658,-0.1989,-0.1991,-0.1992,0,-0.16,-0.1634,-0.1667,-0.1707,-0.1716,-0.1726,-0.1736,-0.175,-0.1779,-0.1779,-0.1803,-0.181,-0.1862,-0.1863,-0.1958,-0.1924,-0.196,-0.1993,-0.1996,-0.1778,-0.174,-0.1645,-0.1664,-0.1708,-0.2008,-0.2007,-0.2006,0,-0.1525,-0.1589,-0.1611,-0.1628,-0.1688,-0.1689,-0.1704,-0.1731,-0.1726,-0.1768,-0.1762,-0.1832,-0.1839,-0.1929,-0.1968,-0.1974,-0.2067,-0.2086,-0.1952,-0.1939,-0.1789,-0.1756,-0.1849,-0.2172,-0.2172,-0.2172,-0.2172,0,-0.1488,-0.1492,-0.1579,-0.1585,-0.1581,-0.1639,-0.1625,-0.1652,-0.1681,-0.1664,-0.1742,-0.1737,-0.1856,-0.1904,-0.1979,-0.1964,-0.2076,-0.1952,-0.194,-0.1813,-0.1783,-0.1797,-0.185,-0.2174,-0.2174,-0.2173,-0.2173,0,-0.1395,-0.1465,-0.1481,-0.1542,-0.155,-0.154,-0.1555,-0.1542,-0.1594,-0.158,-0.1589,-0.1662,-0.1713,-0.1813,-0.1934,-0.192,-0.1932,-0.1946,-0.176,-0.1722,-0.1581,-0.1643,-0.1678,-0.1633,-0.1808,-0.1804,-0.18,0,-0.1356,-0.1364,-0.142,-0.1416,-0.1439,-0.1436,-0.1423,-0.1475,-0.1461,-0.1514,-0.1494,-0.1547,-0.1542,-0.1622,-0.162,-0.1679,-0.1789,-0.1561,-0.1532,-0.1535,-0.1602,-0.1665,-0.1632,-0.1403,-0.1396,-0.1391,-0.1386,0,-0.126,-0.1287,-0.1301,-0.1302,-0.1293,-0.1278,-0.1269,-0.1248,-0.1303,-0.1304,-0.13,-0.1314,-0.1328,-0.1263,-0.129,-0.1336,-0.1494,-0.1439,-0.1529,-0.1338,-0.1335,-0.1296,-0.1401,-0.1337,-0.1342,-0.1345,-0.1348,-0.135,-0.1169,-0.1154,-0.1179,-0.1167,-0.1157,-0.1117,-0.1058,-0.1059,-0.1028,-0.0991,-0.1075,-0.1014,-0.0994,-0.0971,-0.1032,-0.0989,-0.1114,-0.1004,-0.1099,-0.1179,-0.1062,-0.1008,-0.0859,-0.0862,-0.0863,-0.0865,-0.0866,0,-0.106,-0.1052,-0.1035,-0.1018,-0.0964,-0.1002,-0.0948,-0.0879,-0.0804,-0.0752,-0.0722,-0.061,-0.0591,-0.0652,-0.0624,-0.0671,-0.0733,-0.0752,-0.0878,-0.0875,-0.0899,-0.0801,-0.0526,-0.0526,-0.0526,-0.0526,-0.0526,-0.0526,-0.0999,-0.0952,-0.0956,-0.0847,-0.0822,-0.0715,-0.0667,-0.0585,-0.0512,-0.0348,-0.0221,-0.0176,-0.0241,-0.0546,-0.066,-0.0668,-0.0785,-0.0721,-0.0852,-0.0946,-0.098,-0.1013,-0.0935,-0.0693,-0.0694,-0.0747,-0.0748,-0.0748]},{"header":{"parameterUnit":"m.s-1","parameterCategory":2,"la1":30.2991,"la2":30.254,"lo1":-89.0895,"lo2":-89.0444,"dy":0.0017,"dx":0.0017,"nx":28,"ny":28,"refTime":"2025-05-27T03:00:00:Z","depth":"0","parameterNumber":3,"parameterNumberName":"V-component_of_CURRENTS"},"data":[0,0,0,0,0,0,0,0,0,0,0,0,0,0,0,0,0,0,0,0,0,0,0,0,0,0,0,0,0,0,0,0,0,0,0,0,0,0,0,0,0,0,0,0,0,0,0,0,0,0,0,0,0,0,0,0,0,0,-0.0367,-0.0366,0,-0.0272,-0.027,-0.0269,-0.0188,-0.0187,-0.0187,-0.0186,-0.0051,-0.0048,-0.0045,0,0,0,0,0,0,0,0,0,0,0,0,0,-0.0394,-0.0394,-0.0368,-0.0366,-0.0365,-0.0272,-0.027,-0.0269,-0.0188,-0.0187,-0.0187,-0.0186,-0.0051,-0.0048,-0.0045,0,0,0,0,0,0,0,0,0,0,0,0,0,-0.0348,-0.0394,-0.0368,-0.0315,-0.0309,-0.0272,-0.027,-0.0268,-0.0189,-0.0187,-0.0186,-0.0185,-0.0053,-0.0048,-0.0044,-0.004,0,0,-0.0031,-0.0029,0,0,0,0,0,0,0,0,-0.0351,-0.0347,-0.0324,-0.0318,-0.0312,-0.0242,-0.023,-0.0191,-0.0189,-0.0233,-0.0186,-0.0185,-0.0113,-0.0103,-0.0086,-0.0034,-0.0028,-0.003,-0.0028,-0.0026,-0.0025,0,0,0,0,0,0,0,-0.0354,-0.035,-0.0328,-0.0323,-0.0316,-0.0266,-0.0259,-0.0222,-0.0179,-0.0229,-0.0223,-0.0215,-0.0109,-0.0091,-0.0083,-0.0026,-0.0031,-0.0027,-0.0024,-0.0022,0.004,0.0039,0,0,0,0,0,0,-0.0375,-0.0354,-0.0331,-0.0325,-0.033,-0.0267,-0.0259,-0.0264,-0.018,-0.0166,-0.0216,-0.0212,-0.0099,-0.0088,-0.0078,-0.0071,-0.0026,-0.0022,-0.0019,0.0041,0.004,0.0039,0,0,0,0,0,0,-0.0376,-0.0374,-0.0335,-0.0337,-0.0329,-0.0269,-0.0275,-0.0263,-0.0241,-0.0171,-0.0156,-0.0206,-0.0098,-0.0084,-0.0046,-0.0065,-0.002,-0.0016,0.0042,0.004,0.0039,-0.0055,0,0,0,0,0,0,-0.0377,-0.0375,-0.0388,-0.0339,-0.033,-0.0317,-0.0276,-0.0262,-0.0239,-0.0232,-0.0157,-0.0143,-0.0096,-0.0053,-0.0042,-0.0058,-0.0013,0.0043,0.0041,0.0039,-0.0051,-0.006,-0.0067,0,0,0,0,0,-0.0379,-0.0401,-0.039,-0.0387,-0.0349,-0.0318,-0.0309,-0.026,-0.024,-0.0235,-0.0186,-0.0145,-0.0057,-0.005,-0.0037,-0.0052,0.0044,0.0042,0.004,-0.0047,-0.0058,-0.0067,0,0,0,0,0,0,-0.0421,-0.0394,-0.038,-0.0394,-0.0362,-0.0305,-0.0299,-0.0268,-0.0226,-0.022,-0.0152,-0.0136,-0.0112,-0.0071,-0.0066,-0.0041,-0.0002,-0.0002,-0.0073,-0.0082,-0.009,-0.0132,-0.0009,0,0,0,0,0,-0.0439,-0.0447,-0.0409,-0.042,-0.0408,-0.0356,-0.0339,-0.0307,-0.0264,-0.0244,-0.0191,-0.0144,-0.0113,-0.0088,-0.005,-0.0033,-0.0003,-0.0036,-0.0045,-0.0052,-0.0078,-0.0067,-0.0077,0.0031,0.0032,0.0032,0,0,-0.0457,-0.0445,-0.0449,-0.0429,-0.04,-0.0396,-0.0342,-0.0322,-0.0322,-0.0237,-0.0218,-0.0169,-0.0115,-0.0097,-0.0083,-0.0063,-0.0058,-0.0054,-0.0061,-0.0083,-0.007,-0.0081,-0.0091,0.003,0.003,0.0031,0,0,-0.0493,-0.0489,-0.0502,-0.0485,-0.0453,-0.0427,-0.0426,-0.0373,-0.0352,-0.0326,-0.0275,-0.0242,-0.0178,-0.0151,-0.013,-0.0162,-0.0104,-0.0146,-0.0217,-0.0206,-0.0215,-0.0223,-0.0163,-0.0165,-0.0147,-0.0148,-0.0148,0,-0.0515,-0.053,-0.05,-0.0507,-0.0503,-0.0448,-0.0461,-0.0439,-0.038,-0.038,-0.0331,-0.0272,-0.021,-0.0218,-0.022,-0.0183,-0.0153,-0.0183,-0.0218,-0.0226,-0.0232,-0.0169,-0.017,-0.0152,-0.0152,-0.0151,-0.0151,0,-0.0552,-0.0567,-0.0574,-0.0573,-0.0567,-0.0566,-0.0538,-0.0531,-0.0497,-0.0471,-0.0459,-0.0381,-0.035,-0.0322,-0.0273,-0.0299,-0.0252,-0.0232,-0.0198,-0.0249,-0.0178,-0.0177,-0.0159,-0.0158,-0.0156,-0.0155,0,0,-0.0591,-0.0599,-0.06,-0.0615,-0.0603,-0.0602,-0.0623,-0.0624,-0.0653,-0.0589,-0.0623,-0.0547,-0.0507,-0.0482,-0.0422,-0.0404,-0.039,-0.0343,-0.034,-0.029,-0.0336,-0.0191,-0.0175,-0.0382,-0.0384,-0.0385,-0.0255,0,-0.0625,-0.0655,-0.0655,-0.0694,-0.0707,-0.0694,-0.0725,-0.0726,-0.0712,-0.0731,-0.0675,-0.0667,-0.057,-0.0555,-0.0528,-0.0449,-0.0399,-0.0425,-0.0288,-0.0283,-0.0156,-0.0175,-0.0091,0.004,-0.0254,-0.0253,-0.0253,0,-0.0658,-0.0674,-0.0714,-0.0762,-0.077,-0.0794,-0.0845,-0.0865,-0.089,-0.088,-0.0874,-0.0828,-0.0802,-0.0707,-0.0596,-0.0621,-0.0483,-0.04,-0.0393,-0.0234,-0.014,0.0038,0.0053,0.0253,-0.0252,-0.0252,-0.0252,0,-0.0688,-0.0724,-0.076,-0.077,-0.081,-0.0844,-0.0872,-0.0907,-0.0939,-0.098,-0.1005,-0.0971,-0.0955,-0.0828,-0.0627,-0.0623,-0.0489,-0.0457,-0.0186,-0.0172,-0.0062,-0.0036,0.0151,-0.0356,-0.0356,-0.0356,-0.0357,0,-0.0727,-0.0758,-0.0776,-0.0797,-0.0858,-0.0881,-0.0958,-0.0986,-0.1045,-0.1101,-0.1079,-0.1123,-0.0989,-0.0887,-0.0691,-0.0431,-0.0524,-0.0203,-0.0141,-0.0084,-0.0063,0.0148,0.0181,-0.0351,-0.0353,-0.0354,-0.0354,0,-0.0756,-0.0766,-0.0808,-0.0853,-0.0871,-0.0914,-0.0993,-0.1047,-0.1106,-0.1186,-0.1202,-0.1239,-0.1135,-0.0932,-0.0729,-0.0497,-0.0132,-0.0131,-0.0043,0.0027,0.0462,0.0484,0.0668,0.0794,0.0159,0.0163,0.0167,0,-0.077,-0.0792,-0.0834,-0.0854,-0.0875,-0.0937,-0.0983,-0.1058,-0.1114,-0.125,-0.1292,-0.1264,-0.1261,-0.0911,-0.0515,-0.0133,0.0014,0.0244,0.0274,0.0501,0.0569,0.0565,0.0655,0.0398,0.0403,0.0408,0.0411,0,-0.0792,-0.0802,-0.0829,-0.0868,-0.0911,-0.0968,-0.1041,-0.1094,-0.1195,-0.1281,-0.1406,-0.1445,-0.1164,-0.0801,-0.0267,0.001,0.0378,0.0346,0.0531,0.073,0.078,0.0927,0.0329,0.0448,0.0445,0.0442,0.044,0.0438,-0.0791,-0.0811,-0.0838,-0.0883,-0.0924,-0.0983,-0.1031,-0.1113,-0.1216,-0.1327,-0.1436,-0.1471,-0.0957,-0.0273,0.0027,0.0787,0.0663,0.1027,0.1027,0.0999,0.1138,0.0658,0.0876,0.0875,0.0874,0.0873,0.0872,0,-0.0786,-0.0815,-0.0851,-0.0899,-0.094,-0.0968,-0.1055,-0.1099,-0.1197,-0.1276,-0.1384,-0.1064,-0.0449,0.0128,0.114,0.1473,0.1501,0.162,0.1612,0.1668,0.1221,0.1255,0.1626,0.1626,0.1626,0.1625,0.1625,0.1625,-0.0782,-0.0818,-0.0847,-0.0901,-0.0931,-0.0992,-0.1032,-0.1086,-0.113,-0.1109,-0.1038,-0.1007,-0.0182,0.1063,0.1954,0.2042,0.2202,0.2157,0.2242,0.192,0.1864,0.181,0.1856,0.2347,0.2347,0.2712,0.2716,0.2718]}],[{"header":{"parameterUnit":"m.s-1","parameterCategory":2,"la1":30.2991,"la2":30.254,"lo1":-89.0895,"lo2":-89.0444,"dy":0.0017,"dx":0.0017,"nx":28,"ny":28,"refTime":"2025-05-27T03:00:00:Z","depth":"2","parameterNumber":2,"parameterNumberName":"U-component_of_CURRENTS"},"data":[0,0,0,0,0,0,0,0,0,0,0,0,0,0,0,0,0,0,0,0,0,0,0,0,0,0,0,0,0,0,0,0,0,0,0,0,0,0,0,0,0,0,0,0,0,0,0,0,0,0,0,0,0,0,0,0,0,0,-0.2166,-0.2167,0,-0.226,-0.2261,-0.2263,-0.2276,-0.2275,-0.2273,-0.2272,-0.257,-0.2579,-0.2589,0,0,0,0,0,0,0,0,0,0,0,0,0,-0.204,-0.2042,-0.2166,-0.2167,-0.2167,-0.2259,-0.2261,-0.2263,-0.2277,-0.2275,-0.2273,-0.2271,-0.2567,-0.2578,-0.2589,0,0,0,0,0,0,0,0,0,0,0,0,0,-0.2117,-0.2043,-0.2166,-0.2179,-0.2181,-0.2259,-0.2261,-0.2264,-0.2277,-0.2275,-0.2272,-0.227,-0.2563,-0.2577,-0.2591,-0.2725,0,0,-0.2634,-0.264,0,0,0,0,0,0,0,0,-0.2113,-0.2123,-0.2177,-0.2178,-0.218,-0.2247,-0.2325,-0.2426,-0.2278,-0.2249,-0.2272,-0.2269,-0.2478,-0.2499,-0.253,-0.2739,-0.2752,-0.2635,-0.2644,-0.265,-0.2654,0,0,0,0,0,0,0,-0.2107,-0.2119,-0.2211,-0.2177,-0.2179,-0.2194,-0.2203,-0.2345,-0.2385,-0.2251,-0.225,-0.2249,-0.2481,-0.2516,-0.2537,-0.2756,-0.2635,-0.2647,-0.2656,-0.2662,-0.2999,-0.3,0,0,0,0,0,0,-0.2082,-0.2114,-0.2208,-0.2213,-0.2131,-0.2197,-0.2207,-0.2234,-0.2379,-0.2395,-0.2251,-0.2249,-0.2493,-0.2521,-0.2548,-0.2614,-0.265,-0.2663,-0.2671,-0.2999,-0.2999,-0.3,0,0,0,0,0,0,-0.2079,-0.2091,-0.2204,-0.2157,-0.2172,-0.2201,-0.2232,-0.2237,-0.2281,-0.2375,-0.2396,-0.2288,-0.2492,-0.2528,-0.2671,-0.2629,-0.2669,-0.2682,-0.2998,-0.2999,-0.2999,-0.2812,0,0,0,0,0,0,-0.2076,-0.209,-0.2149,-0.2157,-0.2173,-0.2237,-0.2233,-0.2241,-0.228,-0.2279,-0.2416,-0.2439,-0.2493,-0.265,-0.2685,-0.2649,-0.2693,-0.2997,-0.2998,-0.2999,-0.2818,-0.2806,-0.2797,0,0,0,0,0,-0.2072,-0.2121,-0.2152,-0.2165,-0.2238,-0.2236,-0.2248,-0.2264,-0.2284,-0.2299,-0.2395,-0.2435,-0.2678,-0.2664,-0.2705,-0.2671,-0.2997,-0.2998,-0.2999,-0.2822,-0.2808,-0.2797,0,0,0,0,0,0,-0.211,-0.2127,-0.216,-0.2222,-0.223,-0.2235,-0.2264,-0.2284,-0.2375,-0.2388,-0.2485,-0.2517,-0.2609,-0.27,-0.268,-0.2773,-0.283,-0.2839,-0.2681,-0.267,-0.2659,-0.2631,-0.2705,0,0,0,0,0,-0.2147,-0.2182,-0.2193,-0.2246,-0.2249,-0.2274,-0.2296,-0.2294,-0.2347,-0.2383,-0.2462,-0.2562,-0.265,-0.2706,-0.2802,-0.2899,-0.2927,-0.2895,-0.2884,-0.2874,-0.2882,-0.2888,-0.2876,-0.3003,-0.3003,-0.3003,0,0,-0.2208,-0.2192,-0.2242,-0.2257,-0.2271,-0.2259,-0.2282,-0.2291,-0.2287,-0.2413,-0.2465,-0.255,-0.2674,-0.2734,-0.2782,-0.2803,-0.2845,-0.2876,-0.2865,-0.2879,-0.2887,-0.2874,-0.2862,-0.3004,-0.3004,-0.3004,0,0,-0.2224,-0.2297,-0.2299,-0.2294,-0.2278,-0.2278,-0.228,-0.2288,-0.2304,-0.2369,-0.2434,-0.2499,-0.2652,-0.2689,-0.2742,-0.2759,-0.2794,-0.2783,-0.2705,-0.2708,-0.2696,-0.2687,-0.2652,-0.2641,-0.2769,-0.2769,-0.2768,0,-0.228,-0.2279,-0.2304,-0.2259,-0.2258,-0.2278,-0.2258,-0.2279,-0.2329,-0.2359,-0.236,-0.2526,-0.2613,-0.2682,-0.2653,-0.2726,-0.2732,-0.2728,-0.2687,-0.2678,-0.2671,-0.2639,-0.2629,-0.276,-0.2761,-0.2762,-0.2763,0,-0.2273,-0.2273,-0.2259,-0.2216,-0.2227,-0.221,-0.2212,-0.2238,-0.2257,-0.227,-0.2337,-0.2425,-0.252,-0.2526,-0.2597,-0.2594,-0.2611,-0.2667,-0.2697,-0.2646,-0.2617,-0.2609,-0.2747,-0.275,-0.2753,-0.2755,0,0,-0.2357,-0.2273,-0.2272,-0.2231,-0.22,-0.2192,-0.22,-0.221,-0.2235,-0.2245,-0.2273,-0.2345,-0.2381,-0.2446,-0.2513,-0.2496,-0.2416,-0.2547,-0.2551,-0.2474,-0.2389,-0.23,-0.2284,-0.2455,-0.2454,-0.2454,-0.2366,0,-0.233,-0.2231,-0.2216,-0.2161,-0.2114,-0.2141,-0.2153,-0.2177,-0.2205,-0.2239,-0.2279,-0.2338,-0.2353,-0.2396,-0.2373,-0.2459,-0.2399,-0.2433,-0.2488,-0.2489,-0.2385,-0.2274,-0.2101,-0.2001,-0.236,-0.2359,-0.2358,0,-0.2306,-0.223,-0.2173,-0.2101,-0.2099,-0.2087,-0.2128,-0.2136,-0.2194,-0.2227,-0.2257,-0.2311,-0.2329,-0.2335,-0.2342,-0.2366,-0.2349,-0.236,-0.2359,-0.2346,-0.2388,-0.2129,-0.1975,-0.2346,-0.2347,-0.2348,-0.2349,0,-0.231,-0.2194,-0.2145,-0.2128,-0.2078,-0.2086,-0.208,-0.2136,-0.2168,-0.2221,-0.2258,-0.2282,-0.2328,-0.2299,-0.2324,-0.2334,-0.2309,-0.234,-0.2216,-0.2209,-0.2111,-0.2097,-0.2279,-0.2279,-0.2279,-0.2279,-0.228,0,-0.2258,-0.2219,-0.2136,-0.2123,-0.2073,-0.2064,-0.2071,-0.2098,-0.2159,-0.2213,-0.2245,-0.2294,-0.2323,-0.233,-0.2304,-0.2233,-0.2288,-0.2168,-0.2173,-0.2037,-0.2019,-0.2391,-0.2405,-0.2276,-0.2277,-0.2277,-0.2278,0,-0.2272,-0.2215,-0.2141,-0.2088,-0.2067,-0.2039,-0.2033,-0.2055,-0.2125,-0.2201,-0.2222,-0.2309,-0.2308,-0.2294,-0.2284,-0.2222,-0.2163,-0.2115,-0.1931,-0.1913,-0.2052,-0.2058,-0.1938,-0.1934,-0.1931,-0.1928,-0.1925,0,-0.2278,-0.2247,-0.2148,-0.2079,-0.2044,-0.1998,-0.1991,-0.2033,-0.2066,-0.2216,-0.2251,-0.2294,-0.2275,-0.2186,-0.2087,-0.195,-0.2067,-0.1738,-0.1713,-0.1995,-0.2013,-0.2025,-0.2036,-0.1491,-0.1485,-0.148,-0.1477,0,-0.2297,-0.2273,-0.2199,-0.2051,-0.1986,-0.1947,-0.1934,-0.1964,-0.207,-0.2105,-0.2163,-0.2153,-0.2093,-0.1882,-0.1748,-0.1666,-0.1743,-0.1635,-0.198,-0.1614,-0.1569,-0.1589,-0.1615,-0.1435,-0.1439,-0.1442,-0.1444,-0.1446,-0.2311,-0.225,-0.213,-0.1956,-0.19,-0.1877,-0.1832,-0.1856,-0.1868,-0.1899,-0.1995,-0.189,-0.188,-0.1536,-0.1421,-0.131,-0.1428,-0.1357,-0.1373,-0.1394,-0.1367,-0.1321,-0.1131,-0.1134,-0.1136,-0.1137,-0.1139,0,-0.2237,-0.2159,-0.2032,-0.1823,-0.1723,-0.1755,-0.1769,-0.1712,-0.1662,-0.1697,-0.1643,-0.1452,-0.1269,-0.1245,-0.0975,-0.0903,-0.0912,-0.0882,-0.0903,-0.0944,-0.098,-0.0936,-0.0583,-0.0582,-0.058,-0.0579,0,0,-0.2182,-0.2005,-0.1893,-0.1637,-0.1568,-0.1501,-0.1505,-0.1436,-0.1411,-0.1277,-0.1186,-0.1233,-0.1232,-0.0952,-0.0855,-0.0677,-0.0823,-0.0635,-0.1077,-0.1146,-0.1182,-0.1237,-0.1211,0,0,0,0,0]},{"header":{"parameterUnit":"m.s-1","parameterCategory":2,"la1":30.2991,"la2":30.254,"lo1":-89.0895,"lo2":-89.0444,"dy":0.0017,"dx":0.0017,"nx":28,"ny":28,"refTime":"2025-05-27T03:00:00:Z","depth":"2","parameterNumber":3,"parameterNumberName":"V-component_of_CURRENTS"},"data":[0,0,0,0,0,0,0,0,0,0,0,0,0,0,0,0,0,0,0,0,0,0,0,0,0,0,0,0,0,0,0,0,0,0,0,0,0,0,0,0,0,0,0,0,0,0,0,0,0,0,0,0,0,0,0,0,0,0,-0.0083,-0.0083,0,0.0018,0.002,0.0021,0.0099,0.0099,0.0099,0.0099,0.0468,0.0477,0.0487,0,0,0,0,0,0,0,0,0,0,0,0,0,-0.0109,-0.0109,-0.0084,-0.0083,-0.0082,0.0018,0.002,0.0022,0.0099,0.0099,0.0099,0.0099,0.0465,0.0476,0.0488,0,0,0,0,0,0,0,0,0,0,0,0,0,-0.0056,-0.0109,-0.0084,-0.0036,-0.0031,0.0017,0.002,0.0022,0.0098,0.0099,0.0099,0.0099,0.0461,0.0475,0.0489,0.0574,0,0,0.0534,0.054,0,0,0,0,0,0,0,0,-0.006,-0.0055,-0.0044,-0.0039,-0.0034,0.0041,0.0146,0.0218,0.0098,0.0056,0.0099,0.0099,0.0346,0.037,0.0393,0.0591,0.0607,0.0535,0.0544,0.055,0.0554,0,0,0,0,0,0,0,-0.0064,-0.0058,-0.0037,-0.0043,-0.0037,0.0014,0.0022,0.0159,0.0208,0.0059,0.0064,0.0065,0.0351,0.0378,0.0403,0.0612,0.0534,0.0547,0.0556,0.0562,0.1005,0.1008,0,0,0,0,0,0,-0.0094,-0.0062,-0.0041,-0.0035,-0.0053,0.0014,0.0023,0.0021,0.0201,0.0224,0.0065,0.0068,0.0354,0.0386,0.0417,0.0515,0.055,0.0563,0.0572,0.1002,0.1006,0.1009,0,0,0,0,0,0,-0.0095,-0.0093,-0.0045,-0.0051,-0.0042,0.0013,0.0012,0.0023,0.0054,0.0201,0.0231,0.0083,0.0355,0.0396,0.0541,0.0531,0.057,0.0583,0.0998,0.1003,0.1007,0.0721,0,0,0,0,0,0,-0.0096,-0.0094,-0.0099,-0.0053,-0.0043,-0.0029,0.0011,0.0025,0.0051,0.0057,0.0227,0.026,0.0358,0.0519,0.0556,0.0551,0.0594,0.0994,0.1,0.1006,0.0727,0.0716,0.0706,0,0,0,0,0,-0.0097,-0.0109,-0.01,-0.0097,-0.0054,-0.003,-0.0019,0.0025,0.0051,0.0057,0.018,0.0255,0.0583,0.0532,0.0575,0.0574,0.0992,0.0999,0.1005,0.0732,0.0718,0.0706,0,0,0,0,0,0,-0.0122,-0.0102,-0.009,-0.0095,-0.0073,-0.002,-0.0009,0.0022,0.0119,0.0138,0.0281,0.0324,0.0462,0.058,0.052,0.0735,0.0807,0.0823,0.0585,0.0574,0.0564,0.0516,0.0606,0,0,0,0,0,-0.0134,-0.0138,-0.011,-0.0115,-0.0106,-0.0057,-0.0038,-0.0013,0.0069,0.0109,0.022,0.0375,0.0525,0.0591,0.0749,0.0846,0.0918,0.0891,0.088,0.0869,0.0871,0.0942,0.0933,0.1032,0.1032,0.1032,0,0,-0.0148,-0.0137,-0.0139,-0.0121,-0.0094,-0.0088,-0.0043,-0.0026,-0.0013,0.0143,0.0214,0.0353,0.0556,0.0664,0.0736,0.075,0.0879,0.0878,0.0865,0.0874,0.0948,0.0937,0.0927,0.1036,0.1036,0.1035,0,0,-0.0178,-0.0165,-0.0177,-0.0162,-0.0139,-0.0111,-0.0112,-0.0063,-0.0033,0.0042,0.0177,0.0289,0.0501,0.0609,0.0705,0.0746,0.0839,0.0824,0.0695,0.0761,0.0751,0.0742,0.0775,0.0772,0.0791,0.079,0.079,0,-0.0197,-0.0205,-0.0177,-0.0182,-0.0173,-0.0128,-0.0134,-0.01,-0.0013,0.0024,0.0043,0.0332,0.0468,0.0612,0.061,0.0709,0.076,0.0693,0.0732,0.0726,0.0722,0.076,0.076,0.0777,0.0779,0.078,0.0781,0,-0.0231,-0.0236,-0.0241,-0.0235,-0.0221,-0.022,-0.0182,-0.0157,-0.0121,-0.0077,0.0051,0.0203,0.0371,0.0424,0.0518,0.0587,0.0633,0.0709,0.0719,0.0692,0.0737,0.0741,0.0759,0.0763,0.0767,0.077,0,0,-0.0286,-0.027,-0.0274,-0.0274,-0.0248,-0.0242,-0.0224,-0.0187,-0.0164,-0.0104,-0.0059,0.0122,0.0184,0.0302,0.0425,0.045,0.0426,0.0535,0.0545,0.0489,0.0542,0.0569,0.0578,0.0485,0.0486,0.0487,0.0562,0,-0.0324,-0.0345,-0.0324,-0.034,-0.0344,-0.0299,-0.0285,-0.0243,-0.0195,-0.0142,-0.003,0.0086,0.0146,0.0216,0.0243,0.044,0.0436,0.0398,0.0651,0.0659,0.0619,0.0584,0.0574,0.0642,0.0568,0.0569,0.0569,0,-0.0371,-0.0375,-0.0397,-0.0383,-0.0381,-0.0382,-0.0343,-0.0324,-0.024,-0.0199,-0.0118,-0.0004,0.0096,0.0132,0.0319,0.029,0.0381,0.0474,0.0481,0.0615,0.0696,0.0682,0.0655,0.0579,0.0578,0.0578,0.0577,0,-0.0427,-0.0429,-0.0447,-0.0443,-0.042,-0.0416,-0.0402,-0.0339,-0.0316,-0.0227,-0.0194,-0.006,0.0033,0.015,0.0335,0.033,0.0517,0.0554,0.0645,0.0648,0.0751,0.0762,0.0632,0.0632,0.0632,0.0632,0.0631,0,-0.0479,-0.0497,-0.0473,-0.0486,-0.05,-0.0465,-0.0464,-0.0428,-0.0368,-0.0338,-0.0226,-0.016,0.0038,0.0178,0.0311,0.0498,0.0504,0.0615,0.0671,0.0654,0.0655,0.0717,0.0726,0.0634,0.0634,0.0633,0.0633,0,-0.0545,-0.053,-0.0548,-0.0531,-0.053,-0.0539,-0.0521,-0.0513,-0.0451,-0.0407,-0.038,-0.0217,-0.0021,0.0167,0.04,0.0489,0.0661,0.0714,0.0661,0.0708,0.0738,0.0733,0.081,0.0811,0.0813,0.0814,0.0815,0,-0.0585,-0.06,-0.0593,-0.0604,-0.06,-0.0606,-0.0611,-0.0564,-0.0546,-0.0436,-0.0411,-0.0219,-0.0064,0.0271,0.0495,0.0723,0.0718,0.0802,0.0792,0.0711,0.0758,0.075,0.0743,0.0804,0.0805,0.0805,0.0806,0,-0.0657,-0.0647,-0.0654,-0.0669,-0.0679,-0.0695,-0.0691,-0.0688,-0.0622,-0.0568,-0.0456,-0.0323,0.0018,0.0314,0.0617,0.0732,0.0768,0.0821,0.0786,0.0757,0.0712,0.0755,0.0748,0.0812,0.0811,0.0811,0.081,0.081,-0.0703,-0.0717,-0.0714,-0.0722,-0.0744,-0.0764,-0.0766,-0.0746,-0.0712,-0.0582,-0.0463,-0.0175,0.0133,0.0637,0.0744,0.083,0.0855,0.088,0.0876,0.0871,0.0854,0.0813,0.0927,0.0927,0.0927,0.0927,0.0927,0,-0.0738,-0.0751,-0.0768,-0.0773,-0.08,-0.0801,-0.0801,-0.0763,-0.0713,-0.052,-0.0363,0.007,0.0405,0.0667,0.0824,0.0907,0.0863,0.0885,0.0832,0.0829,0.0825,0.0801,0.0863,0.0862,0.0861,0.0861,0,0,-0.0758,-0.0768,-0.0757,-0.0797,-0.0821,-0.0833,-0.0827,-0.075,-0.0587,-0.0387,-0.0118,0.0275,0.0594,0.0729,0.0809,0.0818,0.0774,0.0792,0.0845,0.0768,0.0761,0.0839,0.0803,0,0,0,0,0]}],[{"header":{"parameterUnit":"m.s-1","parameterCategory":2,"la1":30.2991,"la2":30.254,"lo1":-89.0895,"lo2":-89.0444,"dy":0.0017,"dx":0.0017,"nx":28,"ny":28,"refTime":"2025-05-27T03:00:00:Z","depth":"4","parameterNumber":2,"parameterNumberName":"U-component_of_CURRENTS"},"data":[0,0,0,0,0,0,0,0,0,0,0,0,0,0,0,0,0,0,0,0,0,0,0,0,0,0,0,0,0,0,0,0,0,0,0,0,0,0,0,0,0,0,0,0,0,0,0,0,0,0,0,0,0,0,0,0,0,0,-0.1388,-0.1389,0,-0.1491,-0.1492,-0.1493,-0.1531,-0.153,-0.153,-0.153,-0.156,-0.1561,-0.1561,0,0,0,0,0,0,0,0,0,0,0,0,0,-0.1258,-0.1259,-0.1388,-0.139,-0.1391,-0.1491,-0.1492,-0.1494,-0.1531,-0.153,-0.153,-0.153,-0.1559,-0.156,-0.1562,0,0,0,0,0,0,0,0,0,0,0,0,0,-0.1331,-0.126,-0.1388,-0.1423,-0.1427,-0.1491,-0.1492,-0.1494,-0.1531,-0.153,-0.153,-0.153,-0.1559,-0.156,-0.1562,-0.1576,0,0,-0.1566,-0.1567,0,0,0,0,0,0,0,0,-0.1327,-0.1335,-0.1416,-0.1421,-0.1426,-0.15,-0.1457,-0.1518,-0.1531,-0.1489,-0.153,-0.153,-0.1534,-0.1538,-0.1556,-0.1577,-0.1579,-0.1566,-0.1567,-0.1568,-0.1568,0,0,0,0,0,0,0,-0.1321,-0.1331,-0.1427,-0.1418,-0.1424,-0.1446,-0.1455,-0.1469,-0.1509,-0.1493,-0.1496,-0.1511,-0.1536,-0.1554,-0.1557,-0.1579,-0.1566,-0.1567,-0.1568,-0.1569,-0.1658,-0.1659,0,0,0,0,0,0,-0.1312,-0.1327,-0.1424,-0.143,-0.1377,-0.1448,-0.1459,-0.1475,-0.1511,-0.1517,-0.1511,-0.1513,-0.1552,-0.1555,-0.1558,-0.1607,-0.1568,-0.1569,-0.157,-0.1656,-0.1658,-0.166,0,0,0,0,0,0,-0.1308,-0.1319,-0.142,-0.1382,-0.1397,-0.1451,-0.1468,-0.1477,-0.1515,-0.1526,-0.153,-0.1543,-0.1552,-0.1556,-0.1589,-0.1607,-0.157,-0.1571,-0.1655,-0.1657,-0.1659,-0.1686,0,0,0,0,0,0,-0.1304,-0.1317,-0.1334,-0.1381,-0.1398,-0.1462,-0.1469,-0.1479,-0.1524,-0.1527,-0.1554,-0.1556,-0.1552,-0.1587,-0.159,-0.1608,-0.1572,-0.1653,-0.1656,-0.1658,-0.1683,-0.1689,-0.1694,0,0,0,0,0,-0.1299,-0.1315,-0.1334,-0.1346,-0.1416,-0.1463,-0.1474,-0.151,-0.1526,-0.1544,-0.1568,-0.1556,-0.1607,-0.159,-0.1593,-0.1612,-0.1651,-0.1655,-0.1658,-0.1681,-0.1688,-0.1694,0,0,0,0,0,0,-0.1265,-0.1322,-0.1343,-0.1376,-0.1421,-0.147,-0.1497,-0.1524,-0.1561,-0.1569,-0.1576,-0.1579,-0.1607,-0.1616,-0.1596,-0.1648,-0.1627,-0.1632,-0.1644,-0.165,-0.1655,-0.1657,-0.1573,0,0,0,0,0,-0.1267,-0.1292,-0.135,-0.1376,-0.1404,-0.1457,-0.1486,-0.1513,-0.155,-0.1568,-0.159,-0.1612,-0.1623,-0.1642,-0.1649,-0.1688,-0.1678,-0.1704,-0.1709,-0.1714,-0.172,-0.1726,-0.1731,-0.1671,-0.1671,-0.1671,0,0,-0.1262,-0.1295,-0.1312,-0.1371,-0.1413,-0.1461,-0.1474,-0.1524,-0.1565,-0.1563,-0.1624,-0.1625,-0.1635,-0.1666,-0.1682,-0.1679,-0.1725,-0.1718,-0.1721,-0.1725,-0.173,-0.1735,-0.174,-0.1673,-0.1673,-0.1673,0,0,-0.1262,-0.1298,-0.1325,-0.1367,-0.1433,-0.1471,-0.1491,-0.1557,-0.1589,-0.1644,-0.1644,-0.1661,-0.1704,-0.1707,-0.1713,-0.1758,-0.1742,-0.1769,-0.181,-0.1816,-0.182,-0.1824,-0.1809,-0.1812,-0.1785,-0.1785,-0.1785,0,-0.1258,-0.1301,-0.134,-0.1382,-0.1425,-0.1479,-0.1529,-0.157,-0.1638,-0.1664,-0.1667,-0.1721,-0.1719,-0.1751,-0.1765,-0.1767,-0.1767,-0.1781,-0.1821,-0.1824,-0.1828,-0.1812,-0.1814,-0.1787,-0.1787,-0.1787,-0.1786,0,-0.128,-0.1326,-0.1348,-0.1422,-0.147,-0.1518,-0.1586,-0.1634,-0.1681,-0.1717,-0.1763,-0.1769,-0.1798,-0.1802,-0.1798,-0.1829,-0.1819,-0.1812,-0.1798,-0.1835,-0.1816,-0.1818,-0.1789,-0.1789,-0.1788,-0.1788,0,0,-0.1244,-0.1346,-0.1356,-0.1403,-0.1499,-0.1539,-0.1613,-0.1689,-0.1733,-0.1787,-0.1836,-0.1855,-0.1859,-0.1867,-0.1863,-0.1877,-0.1887,-0.1867,-0.1867,-0.1842,-0.1894,-0.176,-0.1749,-0.1895,-0.1895,-0.1896,-0.1867,0,-0.1258,-0.1333,-0.1388,-0.1473,-0.1525,-0.16,-0.166,-0.1731,-0.1786,-0.184,-0.186,-0.1892,-0.1886,-0.1894,-0.191,-0.1891,-0.1896,-0.1895,-0.1873,-0.1871,-0.1739,-0.1748,-0.1899,-0.1868,-0.1868,-0.1869,-0.1869,0,-0.1263,-0.1317,-0.1397,-0.1506,-0.1537,-0.1597,-0.1702,-0.1762,-0.1841,-0.1878,-0.1922,-0.1937,-0.1965,-0.1947,-0.1952,-0.1958,-0.1931,-0.1915,-0.1913,-0.178,-0.174,-0.1828,-0.1871,-0.1871,-0.1871,-0.1871,-0.1871,0,-0.1207,-0.1324,-0.1388,-0.1426,-0.1552,-0.1606,-0.1678,-0.177,-0.1813,-0.1897,-0.1918,-0.1972,-0.1975,-0.1983,-0.1954,-0.1961,-0.1944,-0.1942,-0.1794,-0.1784,-0.1902,-0.1898,-0.1934,-0.1934,-0.1934,-0.1934,-0.1934,0,-0.1187,-0.124,-0.137,-0.1401,-0.1482,-0.1582,-0.1661,-0.1733,-0.1815,-0.1835,-0.1924,-0.1923,-0.1986,-0.1983,-0.1968,-0.1877,-0.1952,-0.1793,-0.1767,-0.1914,-0.1912,-0.1902,-0.1899,-0.1933,-0.1933,-0.1934,-0.1934,0,-0.1108,-0.1192,-0.1271,-0.1409,-0.1456,-0.1511,-0.1641,-0.1679,-0.177,-0.1795,-0.1816,-0.1889,-0.1877,-0.1916,-0.1907,-0.1854,-0.1807,-0.1752,-0.1897,-0.1881,-0.1642,-0.1641,-0.1588,-0.1583,-0.1579,-0.1575,-0.1572,0,-0.1071,-0.1101,-0.1251,-0.1294,-0.1361,-0.1459,-0.1512,-0.1637,-0.1661,-0.1736,-0.1719,-0.1754,-0.1779,-0.1663,-0.1732,-0.1703,-0.1679,-0.1651,-0.1656,-0.1626,-0.1607,-0.1613,-0.1617,-0.1565,-0.1564,-0.1563,-0.1562,0,-0.0991,-0.1051,-0.1115,-0.1205,-0.1278,-0.1348,-0.1429,-0.1427,-0.1528,-0.1622,-0.1559,-0.1551,-0.1532,-0.1546,-0.1536,-0.1517,-0.1678,-0.1607,-0.1616,-0.162,-0.1598,-0.1585,-0.1594,-0.1547,-0.1549,-0.1551,-0.1552,0,-0.0932,-0.0943,-0.1027,-0.1106,-0.1188,-0.1208,-0.1269,-0.1282,-0.1318,-0.1396,-0.1362,-0.1407,-0.1479,-0.1445,-0.1434,-0.1414,-0.1395,-0.1354,-0.1376,-0.1393,-0.1348,-0.1294,-0.1117,0,0,0,0,0,-0.0873,-0.0869,-0.092,-0.099,-0.1071,-0.1114,-0.1198,-0.1252,-0.1334,-0.1236,-0.1293,-0.1262,-0.1239,-0.1283,-0.1221,-0.1374,-0.1421,-0.1299,-0.1391,-0.1466,-0.1483,-0.1452,0,0,0,0,0,0,-0.082,-0.0856,-0.0876,-0.0888,-0.0907,-0.0965,-0.1009,-0.1065,-0.1022,-0.1106,-0.1101,-0.1173,-0.1183,-0.1241,-0.1188,-0.1203,-0.1231,-0.1346,-0.1342,-0.1456,-0.1472,-0.1485,-0.1459,0,0,0,0,0]},{"header":{"parameterUnit":"m.s-1","parameterCategory":2,"la1":30.2991,"la2":30.254,"lo1":-89.0895,"lo2":-89.0444,"dy":0.0017,"dx":0.0017,"nx":28,"ny":28,"refTime":"2025-05-27T03:00:00:Z","depth":"4","parameterNumber":3,"parameterNumberName":"V-component_of_CURRENTS"},"data":[0,0,0,0,0,0,0,0,0,0,0,0,0,0,0,0,0,0,0,0,0,0,0,0,0,0,0,0,0,0,0,0,0,0,0,0,0,0,0,0,0,0,0,0,0,0,0,0,0,0,0,0,0,0,0,0,0,0,-0.0079,-0.0078,0,-0.0048,-0.0048,-0.0047,0.0001,0.0002,0.0003,0.0003,0.0068,0.0069,0.007,0,0,0,0,0,0,0,0,0,0,0,0,0,-0.006,-0.006,-0.0079,-0.0078,-0.0078,-0.0048,-0.0048,-0.0047,0.0001,0.0002,0.0003,0.0004,0.0068,0.0069,0.007,0,0,0,0,0,0,0,0,0,0,0,0,0,-0.0051,-0.0061,-0.0079,-0.0052,-0.0049,-0.0048,-0.0048,-0.0047,0.0001,0.0002,0.0003,0.0004,0.0068,0.0069,0.0071,0.0058,0,0,0.0075,0.0076,0,0,0,0,0,0,0,0,-0.0052,-0.0052,-0.0056,-0.0054,-0.0051,-0.0028,-0.0017,-0.0011,0.0,-0.0017,0.0003,0.0004,0.0037,0.0042,0.0047,0.0062,0.0064,0.0076,0.0077,0.0077,0.0078,0,0,0,0,0,0,0,-0.0052,-0.0052,-0.0065,-0.0056,-0.0053,-0.0029,-0.0027,-0.0016,0.0006,-0.0015,-0.0012,-0.0011,0.004,0.0045,0.0049,0.0065,0.0076,0.0077,0.0078,0.0079,0.0078,0.0078,0,0,0,0,0,0,-0.0063,-0.0054,-0.0066,-0.0064,-0.005,-0.0031,-0.0028,-0.0035,0.0005,0.0012,-0.0012,-0.0009,0.0042,0.0047,0.0051,0.006,0.0077,0.0079,0.008,0.0079,0.0078,0.0077,0,0,0,0,0,0,-0.0063,-0.0065,-0.0067,-0.0059,-0.0058,-0.0033,-0.004,-0.0035,-0.0025,0.0006,0.0014,-0.0008,0.0043,0.0049,0.0058,0.0062,0.0079,0.0081,0.0081,0.0079,0.0078,0.0064,0,0,0,0,0,0,-0.0062,-0.0065,-0.0071,-0.006,-0.0059,-0.007,-0.0041,-0.0035,-0.0028,-0.0023,0.0012,0.0019,0.0044,0.0056,0.006,0.0065,0.0082,0.0082,0.008,0.0078,0.0066,0.0062,0.0059,0,0,0,0,0,-0.0062,-0.008,-0.0072,-0.0073,-0.0069,-0.0071,-0.0068,-0.0045,-0.0029,-0.0031,-0.0008,0.0018,0.0048,0.0056,0.0061,0.0067,0.0083,0.008,0.0078,0.0067,0.0063,0.006,0,0,0,0,0,0,-0.0074,-0.0076,-0.0067,-0.0085,-0.0079,-0.0063,-0.0064,-0.005,-0.0034,-0.0028,0.0007,0.0015,0.0018,0.0037,0.0046,0.0057,0.0069,0.0067,0.0058,0.0055,0.0052,0.0071,0.0083,0,0,0,0,0,-0.0082,-0.0095,-0.0089,-0.0102,-0.0102,-0.0083,-0.008,-0.0068,-0.0054,-0.0045,-0.002,0.0,0.001,0.003,0.0034,0.0048,0.0093,0.0052,0.0048,0.0046,0.0062,0.0138,0.0144,0.007,0.007,0.007,0,0,-0.009,-0.0093,-0.01,-0.0105,-0.0098,-0.0103,-0.0078,-0.0081,-0.0076,-0.0042,-0.0029,-0.0019,0.0004,0.0014,0.002,0.0038,0.0084,0.0043,0.0041,0.006,0.0136,0.0144,0.0151,0.0069,0.0069,0.0069,0,0,-0.0117,-0.0116,-0.0137,-0.0133,-0.0131,-0.0121,-0.0124,-0.0111,-0.0094,-0.0091,-0.0067,-0.0045,-0.0035,0.0,0.0015,-0.0003,0.0051,-0.0014,0.001,0.0082,0.009,0.0097,0.0146,0.0158,0.0003,0.0003,0.0003,0,-0.0125,-0.0149,-0.0141,-0.0155,-0.0153,-0.0131,-0.0144,-0.0128,-0.0112,-0.0093,-0.0092,-0.0051,-0.0034,0.0008,0.0,-0.0004,0.0036,0.0026,0.0082,0.0091,0.0099,0.0147,0.0161,0.0002,0.0002,0.0002,0.0003,0,-0.0165,-0.0178,-0.0189,-0.0196,-0.0194,-0.0203,-0.0182,-0.0171,-0.0154,-0.0129,-0.0096,-0.0065,-0.003,-0.0028,-0.0017,0.0043,0.005,0.0058,0.0101,0.0107,0.0155,0.017,0.0001,0.0001,0.0002,0.0002,0,0,-0.0196,-0.0214,-0.0216,-0.0224,-0.0216,-0.022,-0.0207,-0.0185,-0.0166,-0.0134,-0.0097,-0.0066,-0.0033,-0.0015,0.0013,0.0085,0.0162,0.0098,0.0102,0.0162,0.0313,0.0269,0.0281,0.0187,0.019,0.0192,0.0318,0,-0.0226,-0.0264,-0.0259,-0.028,-0.0294,-0.0264,-0.0253,-0.0224,-0.019,-0.015,-0.0083,-0.0052,-0.0031,-0.0013,0.0063,0.0133,0.0203,0.0127,0.0285,0.0289,0.0265,0.0297,0.0201,0.0329,0.0333,0.0335,0.0337,0,-0.0263,-0.0283,-0.0317,-0.0319,-0.0321,-0.0326,-0.0294,-0.0281,-0.0211,-0.0181,-0.0111,-0.0063,0.0038,0.0046,0.0217,0.0169,0.0238,0.0301,0.0308,0.0289,0.0274,0.0325,0.0364,0.0362,0.036,0.0358,0.0356,0,-0.0292,-0.0319,-0.0348,-0.035,-0.035,-0.035,-0.0343,-0.0291,-0.0272,-0.0192,-0.0163,-0.0039,0.0024,0.0147,0.0267,0.0252,0.0454,0.0447,0.0478,0.0475,0.0484,0.0475,0.0573,0.0573,0.0572,0.0572,0.0572,0,-0.0324,-0.0345,-0.0367,-0.0382,-0.0407,-0.0387,-0.039,-0.036,-0.0307,-0.027,-0.0181,-0.0111,0.0056,0.0183,0.0286,0.043,0.0474,0.0497,0.0516,0.0468,0.0456,0.0494,0.0483,0.0577,0.0576,0.0575,0.0574,0,-0.0348,-0.0364,-0.04,-0.0416,-0.0426,-0.0442,-0.0442,-0.0433,-0.0377,-0.0324,-0.0297,-0.0143,0.0034,0.0187,0.0397,0.0447,0.0586,0.0619,0.0553,0.0562,0.0553,0.054,0.0679,0.0679,0.0678,0.0678,0.0678,0,-0.0364,-0.0388,-0.0433,-0.0463,-0.0476,-0.0499,-0.0512,-0.0477,-0.0459,-0.0333,-0.0303,-0.0124,-0.0011,0.0264,0.0411,0.0609,0.0618,0.0667,0.0619,0.0566,0.057,0.0557,0.0544,0.0678,0.0678,0.0678,0.0678,0,-0.039,-0.0409,-0.044,-0.0503,-0.0537,-0.0569,-0.0578,-0.0567,-0.0498,-0.0449,-0.0279,-0.0123,0.0071,0.0277,0.0423,0.056,0.0626,0.0665,0.0666,0.0622,0.0566,0.0567,0.0555,0.0677,0.0677,0.0677,0.0677,0,-0.0405,-0.0435,-0.0481,-0.053,-0.0585,-0.0613,-0.0617,-0.0567,-0.0531,-0.0386,-0.0319,-0.0096,0.005,0.0253,0.0395,0.0519,0.0538,0.054,0.0548,0.055,0.0459,0.0366,0.045,0,0,0,0,0,-0.041,-0.0444,-0.0502,-0.0557,-0.0614,-0.0634,-0.0647,-0.0633,-0.0561,-0.0447,-0.0379,-0.0188,0.0066,0.0191,0.0312,0.0356,0.0526,0.0492,0.0524,0.0673,0.0674,0.0582,0,0,0,0,0,0,-0.0417,-0.0469,-0.0499,-0.0568,-0.0604,-0.0654,-0.0658,-0.0613,-0.054,-0.0442,-0.0292,-0.0193,0.0061,0.0013,0.0314,0.0352,0.0375,0.0625,0.0626,0.0672,0.0673,0.0674,0.058,0,0,0,0,0]}]]